Regional Weather Roundup
Issued by NWS Albany, NY

Home | Current Version | Previous Version | Text Only | Print | Product List | Glossary On
Versions: 1 2 3 4 5 6 7 8 9 10 11 12 13 14 15 16 17 18 19 20 21 22 23 24 25 26 27 28 29 30 31 32 33 34 35 36 37 38 39 40 41 42 43 44 45 46 47
000
ASUS41 KALY 300410
RWRALY

NEW YORK STATE HOURLY WEATHER ROUNDUP
NATIONAL WEATHER SERVICE ALBANY NY
1100 PM EST THU JAN 29 2015

NOTE: "FAIR" INDICATES FEW OR NO CLOUDS BELOW 12,000 FEET WITH NO
SIGNIFICANT WEATHER AND/OR NO OBSTRUCTIONS TO VISIBILITY.

NYZ032-033-038>043-046>054-057>066-NYZ062>081-300500-
EAST


CITY           SKY/WX    TMP DP  RH WIND       PRES   REMARKS
ALBANY         LGT SNOW  28  20  71 S13G26    29.94F WCI  17
GLENS FALLS    LGT SNOW  25  21  85 S9        29.93F VSB 3/4 WCI  15
POUGHKEEPSIE   CLOUDY    31  24  75 S5        30.00F WCI  26
NEWBURGH       CLOUDY    28  23  80 VRB3      29.98F
MONTGOMERY     FLURRIES  29  19  66 SW5       29.97F WCI  24
WHITE PLAINS   CLOUDY    29  24  82 CALM      30.00F
ISLIP          CLOUDY    33  28  81 CALM      30.03S
NEW YORK CITY  CLOUDY    34  26  72 SW7       30.03F WCI  28
CENTRAL PARK   CLOUDY    35  23  61 VRB3      30.04F
$$

NYZ005>009-017-018-044>046-055-056-300500-
CENTRAL


CITY           SKY/WX    TMP DP  RH WIND       PRES   REMARKS
FULTON         CLOUDY    31  23  72 S10       29.79F WCI  22
SYRACUSE       FLURRIES  28  23  81 S8        29.80F WCI  20
ROME           MIX PCPN  27  20  75 SE14      29.87S WCI  16
ELMIRA         LGT SNOW  27  23  85 CALM      29.82F FOG
BINGHAMTON     CLOUDY    23  20  88 S9        29.80F WCI  13
MONTICELLO     CLOUDY    21  19  93 SE6       29.91F WCI  14
$$

NYZ026>034-041>043-300500-
NORTH


CITY           SKY/WX    TMP DP  RH WIND       PRES   REMARKS
WATERTOWN      LGT SNOW  33  26  75 S12G21    29.76F WCI  24
FORT DRUM      NOT AVBL
MASSENA        CLOUDY    30  29  96 CALM      29.79F
SARANAC LAKE   CLOUDY    26  20  77 SW13      29.73S WCI  15
PLATTSBURGH    LGT SNOW  28  21  75 S16G28    29.84R WCI  16
$$

NYZ001>004-010>016-019>021-300500-
WEST


CITY           SKY/WX    TMP DP  RH WIND       PRES   REMARKS
NIAGARA FALLS  LGT SNOW  29  27  92 W14       29.82R VSB 1   WCI  18
BUFFALO        LGT SNOW  30  27  88 W13       29.82R FOG     WCI  20
DUNKIRK        LGT SNOW  29  28  96 W12G21    29.87R FOG     WCI  19
JAMESTOWN      CLOUDY    27  21  80 W16G26    29.82R WCI  14
WELLSVILLE     FLURRIES  26  22  84 SW8       29.74S WCI  18
ROCHESTER      LGT SNOW  32  29  88 W8        29.78R FOG     WCI  25
PENN YAN       LGT SNOW  27  22  81 S12       29.78S WCI  17
$$

             KEY
       WCI = WIND CHILL INDEX
       VSB = VISIBILITY
       HX  = HEAT INDEX
$$



USA.gov is the U.S. government's official web portal to all federal, state and local government web resources and services.